Etusivu
METAR-TAF:

METAR-TAF

Lentoasemat :

South Wood County Airport (Alexander Field)

Wisconsin Rapids, Wisconsin, Yhdysvallat

Leveyspiiri: 44-21-33N, Pituuspiiri: 089-50-13W, korkeus merenpinnasta: 311 m

Tämänhetkinen sää

Tämä raportti tehtiin 39 minuuttia sitten, kello 14.54 UTC
Tuuli 3 kn pohjoisen/luoteesta
Lämpötila 1°C
Kosteus 51%
Ilmanpaine 1026 hPa
Näkyvyys: 16.1 km
selkeää

METAR: KISW 301454Z AUTO 34003KT 10SM CLR 01/M08 A3030 RMK AO2 SLP275 T00061078 51025

Aika: 10:33 (15:33 UTC)


TAF: puuttuu

Säähavainnot ja -ennusteet yli 4000 lentoasemalta (METAR- ja TAF-raportit).

Käytössä olevat sääasemat on merkitty karttaan keltaisilla ja punaisilla pisteillä.

Aseta hiiri pisteen päälle nähdäksesi sääaseman nimen.

Klikkaa sitten nähdäksesi säähavainnot ja -ennusteet.

Kartan vaihtaminen: klikkaa mustalla rastilla varustettuja vihreitä pisteitä, niin voit zoomata sisään; viivalla varustettua vihreää pistettä, niin voit zoomata ulos tai vihreitä nuolia, niin pääset viereisille kartoille.


METAR-TAF: